Location: Banff
(51.1667°N, 115.5667°W)
Time: 09:53:24
(UTC+00:00)

Envisat - Pass Details

Date: 27 November 2022
Orbit: 763 x 765 km, 98.2° (Epoch: 28 January)

Event Time Altitude Azimuth Distance (km) Brightness Sun altitude
Rises 13:02:55 0° 9° (N) 3,247 6.3 -20.5°
Reaches altitude 10° 13:05:22 10° 1° (N) 2,317 5.4 -20.1°
Enters shadow 13:09:52 36° 299° (WNW) 1,196 3.5 -19.4°
